Location: Newark
(46.4000°N, 12.3500°E)
Time: 12:49:56
(UTC+00:00)

N. Korean satellite - Visible Passes

Search period start: 17 October 2019 00:00
Search period end: 27 October 2019 00:00
Orbit: 455 x 508 km, 97.2° (Epoch: 16 October)

Date Brightness Start Highest point End Pass type
(mag) Time Alt. Az. Time Alt. Az. Time Alt. Az.
17 Oct 9.1 04:31:21 10° NE 04:34:26 26° E 04:37:31 10° SSE visible
18 Oct 10.1 04:06:59 10° ENE 04:08:57 14° E 04:10:57 10° SE visible
19 Oct 10.3 17:27:32 10° WSW 17:28:47 12° W 17:30:03 10° WNW visible
20 Oct 8.1 04:48:32 10° NNE 04:52:00 43° E 04:55:30 10° S visible
20 Oct 9.4 17:00:31 10° SSW 17:03:16 22° W 17:06:04 10° NW visible
21 Oct 9.5 04:23:42 10° NE 04:26:35 22° E 04:29:30 10° SSE visible
22 Oct 10.4 03:59:42 10° ENE 04:01:05 12° E 04:02:28 10° ESE visible
23 Oct 6.9 05:05:53 10° NNE 05:09:31 73° ESE 05:13:11 10° S visible
23 Oct 10.0 17:18:55 10° SW 17:20:51 14° W 17:22:50 10° WNW visible
24 Oct 8.5 04:40:46 10° NNE 04:44:10 35° E 04:47:34 10° SSE visible
24 Oct 9.0 16:52:22 10° SSW 16:55:22 28° W 16:58:25 10° NW visible
25 Oct 9.8 04:16:04 10° NE 04:18:42 19° E 04:21:21 10° SE visible
